Location: Unspecified
(17.6330°N, 0.0000°E)
Time: 19:50:02
(UTC+00:00)

Vanguard 1 Rocket - Visible Passes

Search period start: 24 June 2019 00:00
Search period end: 04 July 2019 00:00
Orbit: 652 x 4224 km, 34.3° (Epoch: 23 June)

Date Brightness Start Highest point End Pass type
(mag) Time Alt. Az. Time Alt. Az. Time Alt. Az.
24 Jun 9.6 20:09:15 10° NW 20:18:09 27° N 20:23:38 10° ENE visible
24 Jun 9.7 22:39:09 10° NW 22:41:10 19° NW 22:41:10 19° NW visible
25 Jun 10.0 18:52:42 10° WNW 19:05:18 31° N 19:12:32 10° NE visible
25 Jun 8.6 21:26:23 10° NW 21:33:52 36° NNE 21:33:52 36° NNE visible
26 Jun 9.4 20:12:14 10° NW 20:21:45 31° N 20:26:33 14° ENE visible
26 Jun 9.7 22:41:59 10° WNW 22:43:50 18° WNW 22:43:50 18° WNW visible
27 Jun 9.9 18:56:07 10° WNW 19:08:54 32° N 19:16:08 10° ENE visible
27 Jun 8.3 21:29:03 10° NW 21:36:31 48° N 21:36:31 48° N visible
28 Jun 9.0 20:15:01 10° NW 20:25:18 38° NNE 20:29:13 21° ENE visible
28 Jun 9.9 22:44:58 10° WNW 22:46:30 16° WNW 22:46:30 16° WNW visible
29 Jun 9.8 18:59:19 10° WNW 19:12:30 35° N 19:19:50 10° ENE visible
29 Jun 8.1 21:31:44 10° NW 21:39:13 58° NNW 21:39:13 58° NNW visible
30 Jun 8.6 20:17:42 10° NW 20:28:45 48° NNE 20:31:56 30° ENE visible
30 Jun 10.0 22:48:15 10° WNW 22:49:12 13° WNW 22:49:12 13° WNW visible
01 Jul 9.7 19:02:16 10° WNW 19:16:06 40° N 19:23:32 10° ENE visible
01 Jul 8.2 21:34:30 10° WNW 21:41:56 55° WNW 21:41:56 55° WNW visible
02 Jul 8.2 20:20:19 10° NW 20:32:04 63° NNE 20:34:41 40° E visible
03 Jul 9.4 19:05:02 10° WNW 19:19:38 48° NNE 19:27:09 10° E visible
03 Jul 8.6 21:37:27 10° WNW 21:44:43 44° W 21:44:43 44° W visible
